Regional Weather Roundup
Issued by NWS

Home | Current Version | Previous Version | Text Only | Print | Product List | Glossary Off
Versions: 1 2 3 4 5 6 7 8 9 10 11 12 13 14 15 16 17 18 19 20 21 22 23 24 25 26 27

000
ASUS45 KSLC 170910
RWRUT

UTAH REGIONAL WEATHER ROUNDUP
NATIONAL WEATHER SERVICE SALT LAKE CITY UT
200 AM MST SUN DEC 17 2017

UTZ001>011-023>025-171000-

NORTHERN UTAH

CITY           SKY/WX    TMP DP  RH WIND       PRES   REMARKS
BRIGHAM CITY   CLOUDY    30  23  74 SW3       30.12R
HILL AFB       CLOUDY    26  22  85 SW5       30.09R WCI  21
LOGAN          CLOUDY    29  23  78 N3        30.12R
OGDEN          CLOUDY    26  22  84 NW3       30.10R
SALT LAKE CITY MOCLDY    31  26  82 N5        30.11R WCI  26
TOOELE VALLEY  CLOUDY    30  28  93 CALM      30.12R
WENDOVER       MOCLDY    27  17  66 N6        30.14R WCI  20
HEBER CITY     CLOUDY    28  21  74 NE5       30.02S WCI  23
WEST JORDAN    CLOUDY    29  26  88 N8        30.11R WCI  21

$$

UTZ011>015-024>027-171000-

CENTRAL/NORTHEAST UTAH

CITY           SKY/WX    TMP DP  RH WIND       PRES   REMARKS
PROVO AIRPORT  CLOUDY    30  27  86 NW10      30.10R WCI  21
MOAB/CANYONLAN MOCLDY    18   7  62 W3        29.93R
DELTA          CLOUDY    28  27  93 N8        30.09R WCI  20
PRICE          CLOUDY    32  20  61 NW15      29.92R WCI  22
RICHFIELD      CLOUDY    30  28  93 CALM      30.07R
ROOSEVELT      CLOUDY    28  14  54 CALM      29.96R
VERNAL         CLOUDY    25  14  63 NW3       29.94R

$$

UTZ013>016-019>022-027-171000-

SOUTHERN UTAH

CITY           SKY/WX    TMP DP  RH WIND       PRES   REMARKS
BRYCE CANYON   MOCLDY    19  18  95 NW7       29.96R WCI  10
CEDAR CITY     CLOUDY    28  22  78 N12       30.02R WCI  18
MILFORD        CLOUDY    28  25  88 N13       30.06S WCI  17
ST GEORGE      MOSUNNY   43  24  47 S9        29.98R
HANKSVILLE     PTCLDY    16   3  57 CALM      29.98R
BLANDING         N/A     26   3  37 W3        29.99R

$$

REGIONAL REPORTS     COLORADO/ARIZONA

CITY           SKY/WX    TMP DP  RH WIND       PRES   REMARKS
CRAIG, CO      CLOUDY     6   3  87 NW3       29.95R
GRAND JUNCTION CLOUDY    19   5  54 E3        29.94R
RIFLE, CO      CLOUDY    17   7  64 CALM      29.93R
MONTROSE, CO   CLOUDY    20   8  60 SE7       29.95R WCI  11
CORTEZ, CO     CLOUDY    25   5  42 E7        29.93R WCI  17
COLORADO CITY    N/A     27  12  54 E5        29.97R WCI  21
PAGE, AZ       PTCLDY    32  10  40 CALM      29.93R
GRAND CANYON   MOCLDY    16   0  49 CALM      29.94R
KINGMAN, AZ    MOCLDY    38  18  44 E13       29.90R WCI  30
FLAGSTAFF, AZ  CLOUDY    29   9  43 CALM      29.92R

$$

REGIONAL REPORTS    NEVADA/IDAHO/WYOMING

CITY           SKY/WX    TMP DP  RH WIND       PRES   REMARKS
LAS VEGAS, NV  CLOUDY    52  24  33 NW17      29.94R
ELY, NY        PTCLDY    15  10  80 N7        30.09R WCI   5
ELKO, NV       PTCLDY    14  10  84 W3        30.15S
POCATELLO, ID  CLOUDY    27  24  89 SW14      30.15S WCI  16
BURLEY, ID       N/A     26  19  74 W12       30.15S WCI  16
FORT BRIDGER,    N/A     22  20  93 W15       30.00S WCI   8
EVANSTON, WY   CLOUDY    21  19  92 NW6       30.00R WCI  13
ROCK SPRINGS,  LGT SNOW  24  21  88 SW12      29.95R FOG     WCI  13

$$




USA.gov is the U.S. government's official web portal to all federal, state and local government web resources and services.